[[{"header":{"parameterUnit":"m.s-1","parameterCategory":1,"la1":30.2991,"la2":30.254,"lo1":-89.0895,"lo2":-89.0444,"dy":0.0017,"dx":0.0017,"nx":28,"ny":28,"refTime":"2024-09-02T03:00:00:Z","depth":0,"parameterNumber":2,"parameterNumberName":"U-component_of_WINDS"},"data":[0,0,0,0,0,0,0,0,0,0,0,0,0,0,0,0,0,0,0,0,0,0,0,0,0,0,0,0,0,0,0,0,0,0,0,0,0,0,0,0,0,0,0,0,0,0,0,0,0,0,0,0,0,0,0,0,0,0,-7.7373,-7.7375,0,-7.7545,-7.7547,-7.7549,-7.7469,-7.7465,-7.7461,-7.7457,-7.7631,-7.764,-7.7648,0,0,0,0,0,0,0,0,0,0,0,0,0,-7.6977,-7.6985,-7.7373,-7.7375,-7.7378,-7.7545,-7.7547,-7.7549,-7.747,-7.7465,-7.746,-7.7455,-7.7628,-7.7639,-7.7649,0,0,0,0,0,0,0,0,0,0,0,0,0,-7.7149,-7.6987,-7.7373,-7.7358,-7.7358,-7.7544,-7.7547,-7.755,-7.7471,-7.7465,-7.7458,-7.7452,-7.7625,-7.7638,-7.7651,-7.786,0,0,-7.769,-7.7696,0,0,0,0,0,0,0,0,-7.7139,-7.7164,-7.7358,-7.7359,-7.736,-7.7479,-7.7471,-7.7654,-7.7473,-7.7428,-7.7457,-7.7449,-7.7586,-7.7602,-7.7648,-7.7869,-7.7876,-7.7691,-7.7699,-7.7705,-7.7709,0,0,0,0,0,0,0,-7.7128,-7.7156,-7.7441,-7.7361,-7.7362,-7.7343,-7.736,-7.7506,-7.7541,-7.7432,-7.7426,-7.7448,-7.7585,-7.7636,-7.7652,-7.7879,-7.7691,-7.7703,-7.7711,-7.7716,-7.8281,-7.8288,0,0,0,0,0,0,-7.7116,-7.7146,-7.7436,-7.7446,-7.7232,-7.7356,-7.7375,-7.7448,-7.754,-7.7547,-7.7453,-7.7444,-7.7617,-7.7636,-7.7657,-7.7909,-7.7705,-7.7717,-7.7725,-7.8274,-7.8283,-7.8291,0,0,0,0,0,0,-7.7108,-7.7143,-7.7429,-7.7295,-7.733,-7.7369,-7.7452,-7.7454,-7.7505,-7.7556,-7.7562,-7.7498,-7.7612,-7.7639,-7.7811,-7.7914,-7.7723,-7.7735,-7.8266,-7.8277,-7.8287,-7.8414,0,0,0,0,0,0,-7.7097,-7.714,-7.722,-7.7297,-7.7337,-7.7579,-7.7458,-7.7462,-7.7527,-7.7516,-7.76,-7.7607,-7.7609,-7.7792,-7.7824,-7.7928,-7.7745,-7.8257,-7.8271,-7.8284,-7.84,-7.8428,-7.8451,0,0,0,0,0,-7.7083,-7.7248,-7.7224,-7.7259,-7.7438,-7.7585,-7.7608,-7.7608,-7.7536,-7.7617,-7.765,-7.7604,-7.7899,-7.781,-7.7845,-7.7955,-7.825,-7.8267,-7.8282,-7.8389,-7.8422,-7.845,0,0,0,0,0,0,-7.718,-7.7258,-7.7232,-7.7427,-7.7501,-7.7572,-7.7673,-7.7643,-7.7737,-7.7723,-7.7718,-7.7738,-7.7915,-7.7953,-7.7853,-7.8164,-7.8063,-7.8087,-7.8132,-7.8164,-7.8189,-7.8174,-7.7756,0,0,0,0,0,-7.7224,-7.7338,-7.74,-7.7566,-7.7604,-7.7633,-7.7697,-7.7691,-7.7766,-7.7796,-7.7842,-7.7917,-7.8026,-7.8098,-7.8201,-7.8407,-7.8424,-7.85,-7.8525,-7.8546,-7.8566,-7.8678,-7.8712,-7.8344,-7.8344,-7.8344,0,0,-7.7316,-7.7373,-7.7445,-7.7587,-7.7643,-7.776,-7.7659,-7.7787,-7.7874,-7.7816,-7.798,-7.8017,-7.8101,-7.8291,-7.8376,-7.8327,-7.8672,-7.8567,-7.8582,-7.8591,-7.8698,-7.8733,-7.8764,-7.8355,-7.8353,-7.8351,0,0,-7.7543,-7.7599,-7.7743,-7.7802,-7.7889,-7.7907,-7.7943,-7.802,-7.8042,-7.8208,-7.8166,-7.8271,-7.8459,-7.852,-7.8576,-7.8831,-7.8792,-7.8865,-7.8995,-7.9104,-7.9133,-7.9159,-7.9249,-7.9281,-7.8886,-7.8886,-7.8886,0,-7.7646,-7.7822,-7.7821,-7.7954,-7.8017,-7.7972,-7.8119,-7.8176,-7.8292,-7.8337,-7.8281,-7.8518,-7.8571,-7.8774,-7.8837,-7.8884,-7.8924,-7.8854,-7.9129,-7.9155,-7.9179,-7.9265,-7.9299,-7.8894,-7.8893,-7.8892,-7.8892,0,-7.7944,-7.8067,-7.8173,-7.8287,-7.8364,-7.8503,-7.8524,-7.8602,-7.859,-7.8615,-7.8785,-7.8848,-7.8963,-7.9012,-7.9002,-7.9216,-7.9182,-7.9129,-7.9026,-7.9222,-7.9302,-7.9335,-7.8906,-7.8903,-7.89,-7.8898,0,0,-7.8232,-7.8347,-7.8386,-7.8438,-7.8532,-7.8627,-7.8765,-7.8879,-7.8946,-7.9029,-7.9144,-7.9306,-7.9258,-7.9321,-7.9318,-7.9415,-7.9612,-7.9349,-7.9351,-7.9394,-7.9851,-7.9888,-7.9926,-7.9589,-7.9595,-7.96,-7.9843,0,-7.8464,-7.8705,-7.8711,-7.8932,-7.9045,-7.9006,-7.9126,-7.9198,-7.9226,-7.9327,-7.9358,-7.9472,-7.94,-7.9438,-7.9533,-7.9568,-7.9703,-7.9551,-7.9695,-7.97,-7.9671,-7.9968,-8.0008,-8.0234,-7.9875,-7.988,-7.9884,0,-7.8766,-7.886,-7.9093,-7.9173,-7.922,-7.9328,-7.9434,-7.9531,-7.9612,-7.9626,-7.97,-7.9683,-7.9824,-7.9721,-7.9916,-7.9812,-7.9872,-7.9899,-7.9908,-7.9918,-7.9801,-7.9985,-8.0306,-8.0339,-7.9933,-7.993,-7.9926,0,-7.895,-7.9136,-7.9299,-7.9345,-7.9443,-7.9519,-7.9564,-7.9638,-7.9707,-7.9801,-7.9845,-7.9954,-8.0013,-8.0098,-8.0111,-8.0035,-8.0307,-8.0205,-8.0321,-8.0321,-8.0376,-8.0372,-8.0709,-8.0421,-8.042,-8.042,-8.0419,0,-7.9207,-7.9351,-7.9383,-7.9483,-7.9643,-7.965,-7.9808,-7.9846,-7.9914,-8.0021,-7.9995,-8.0096,-8.011,-8.0215,-8.0227,-8.0386,-8.0413,-8.0428,-8.0428,-8.0428,-8.0426,-8.0464,-8.0448,-8.0429,-8.0427,-8.0425,-8.0423,0,-7.9438,-7.9466,-7.9641,-7.9721,-7.9744,-7.9859,-7.9927,-8.0023,-8.005,-8.0186,-8.0219,-8.0261,-8.0384,-8.0407,-8.0551,-8.0559,-8.0749,-8.0735,-8.0721,-8.0718,-8.0833,-8.0821,-8.1204,-8.1254,-8.0935,-8.0938,-8.0941,0,-7.9598,-7.9708,-7.98,-7.9871,-7.9919,-8.0033,-8.0104,-8.0116,-8.0191,-8.0293,-8.0377,-8.0498,-8.0593,-8.0791,-8.0835,-8.0946,-8.0933,-8.106,-8.0949,-8.0946,-8.0932,-8.0925,-8.0935,-8.108,-8.1083,-8.1086,-8.1088,0,-7.9879,-7.9888,-7.9992,-8.0102,-8.0187,-8.0274,-8.0356,-8.0415,-8.0439,-8.0525,-8.065,-8.0725,-8.0874,-8.0993,-8.1105,-8.115,-8.1124,-8.1124,-8.1156,-8.1155,-8.1142,-8.1149,-8.0776,-8.1114,-8.1111,-8.1109,-8.1108,-8.1107,-8.0078,-8.0174,-8.0254,-8.0371,-8.0435,-8.0513,-8.0608,-8.0648,-8.0753,-8.0875,-8.0877,-8.1014,-8.1095,-8.1242,-8.1296,-8.1403,-8.1363,-8.141,-8.1421,-8.1432,-8.1442,-8.1128,-8.1424,-8.1423,-8.1422,-8.1422,-8.1421,0,-8.0355,-8.0406,-8.0514,-8.0631,-8.0723,-8.0693,-8.0784,-8.0862,-8.0984,-8.1062,-8.1158,-8.1303,-8.142,-8.1475,-8.159,-8.1666,-8.1657,-8.1695,-8.1688,-8.1699,-8.1472,-8.1432,-8.1701,-8.1701,-8.1701,-8.1701,-8.1701,-8.1701,-8.051,-8.0671,-8.0691,-8.0883,-8.0934,-8.1068,-8.1123,-8.1195,-8.1257,-8.1421,-8.1518,-8.1554,-8.1623,-8.1744,-8.185,-8.1863,-8.1906,-8.195,-8.1957,-8.1744,-8.1715,-8.1688,-8.1649,-8.196,-8.196,-8.2174,-8.2176,-8.2178]},{"header":{"parameterUnit":"m.s-1","parameterCategory":1,"la1":30.2991,"la2":30.254,"lo1":-89.0895,"lo2":-89.0444,"dy":0.0017,"dx":0.0017,"nx":28,"ny":28,"refTime":"2024-09-02T03:00:00:Z","depth":0,"parameterNumber":3,"parameterNumberName":"V-component_of_WINDS"},"data":[0,0,0,0,0,0,0,0,0,0,0,0,0,0,0,0,0,0,0,0,0,0,0,0,0,0,0,0,0,0,0,0,0,0,0,0,0,0,0,0,0,0,0,0,0,0,0,0,0,0,0,0,0,0,0,0,0,0,1.1771,1.1772,0,1.1883,1.1884,1.1885,1.2029,1.2031,1.2034,1.2036,1.2146,1.2147,1.2148,0,0,0,0,0,0,0,0,0,0,0,0,0,1.1681,1.1682,1.1771,1.1772,1.1774,1.1882,1.1884,1.1886,1.2029,1.2031,1.2034,1.2037,1.2146,1.2147,1.2148,0,0,0,0,0,0,0,0,0,0,0,0,0,1.1749,1.1682,1.1771,1.1858,1.1867,1.1882,1.1884,1.1886,1.2028,1.2032,1.2035,1.2038,1.2146,1.2147,1.2148,1.2085,0,0,1.2151,1.2152,0,0,0,0,0,0,0,0,1.1745,1.1752,1.1844,1.1852,1.1862,1.1946,1.1893,1.1952,1.2027,1.1967,1.2036,1.204,1.2076,1.2083,1.2097,1.209,1.2095,1.2151,1.2152,1.2153,1.2153,0,0,0,0,0,0,0,1.174,1.1748,1.1815,1.1845,1.1856,1.1892,1.1905,1.1905,1.2,1.1972,1.1983,1.1995,1.2082,1.2095,1.21,1.2096,1.2151,1.2152,1.2153,1.2154,1.2047,1.2044,0,0,0,0,0,0,1.1722,1.1743,1.1811,1.1818,1.1811,1.1891,1.1906,1.1915,1.2001,1.2017,1.1991,1.2001,1.2091,1.2099,1.2105,1.2038,1.2153,1.2154,1.2154,1.205,1.2046,1.2042,0,0,0,0,0,0,1.172,1.1727,1.1807,1.1784,1.1797,1.1889,1.1898,1.1916,1.1929,1.2015,1.2033,1.1987,1.2095,1.2103,1.209,1.2044,1.2154,1.2155,1.2055,1.2049,1.2044,1.1902,0,0,0,0,0,0,1.1717,1.1725,1.1702,1.1782,1.1797,1.1789,1.1895,1.1915,1.1931,1.1944,1.2016,1.2031,1.2098,1.2087,1.2091,1.2047,1.2156,1.2059,1.2052,1.2046,1.1911,1.1893,1.1877,0,0,0,0,0,1.1713,1.1656,1.17,1.1707,1.177,1.1786,1.1795,1.1874,1.1926,1.1904,1.1961,1.2029,1.2049,1.2085,1.209,1.2046,1.2062,1.2054,1.2047,1.1919,1.1896,1.1877,0,0,0,0,0,0,1.1565,1.1668,1.1718,1.1685,1.1726,1.1811,1.1784,1.1847,1.1873,1.1884,1.1981,1.1996,1.1971,1.2008,1.2046,1.1991,1.2066,1.2059,1.1967,1.1946,1.1929,1.192,1.2157,0,0,0,0,0,1.1529,1.1534,1.1624,1.1586,1.1605,1.1691,1.1701,1.1759,1.1805,1.1822,1.1878,1.1919,1.1936,1.1943,1.1963,1.1919,1.1937,1.1892,1.1874,1.186,1.1851,1.1833,1.1815,1.2017,1.2017,1.2017,0,0,1.1453,1.151,1.1507,1.1558,1.1597,1.16,1.1704,1.1703,1.1706,1.1822,1.1813,1.1855,1.1908,1.188,1.187,1.191,1.1801,1.185,1.1837,1.1837,1.1823,1.1804,1.1787,1.2011,1.2012,1.2013,0,0,1.1318,1.1361,1.1336,1.1374,1.1432,1.1491,1.1485,1.1561,1.1594,1.1588,1.1676,1.1682,1.1707,1.1742,1.1762,1.1646,1.171,1.165,1.1558,1.1539,1.1523,1.151,1.1469,1.1453,1.1642,1.1641,1.1641,0,1.1216,1.1225,1.1314,1.1309,1.1329,1.1437,1.1413,1.1445,1.1506,1.1517,1.1562,1.1598,1.1641,1.1624,1.1596,1.1609,1.1606,1.164,1.1519,1.1506,1.1495,1.1456,1.1441,1.1634,1.1634,1.1635,1.1636,0,1.1098,1.1103,1.1076,1.1135,1.1152,1.1136,1.1224,1.1231,1.1289,1.1343,1.1337,1.1393,1.1427,1.1428,1.1483,1.1419,1.1442,1.1501,1.1578,1.1466,1.1432,1.1418,1.1622,1.1625,1.1627,1.1629,0,0,1.0867,1.0979,1.0968,1.0997,1.1072,1.1078,1.1069,1.1105,1.1109,1.1149,1.1144,1.1166,1.1222,1.1246,1.1307,1.129,1.1196,1.1352,1.1355,1.1321,1.1131,1.1085,1.1066,1.1241,1.1238,1.1236,1.1126,0,1.0745,1.0735,1.0818,1.0786,1.0793,1.0899,1.0892,1.0937,1.0988,1.1002,1.106,1.1073,1.1146,1.1162,1.1151,1.1209,1.1159,1.1219,1.1236,1.1236,1.1218,1.1048,1.0999,1.0892,1.1113,1.1111,1.111,0,1.0599,1.0634,1.0603,1.0684,1.069,1.0681,1.0722,1.0734,1.0789,1.0828,1.0857,1.0928,1.0926,1.1001,1.1,1.1039,1.1052,1.1082,1.108,1.1083,1.1164,1.1046,1.086,1.0843,1.1089,1.1091,1.1092,0,1.0434,1.0473,1.0461,1.0483,1.0576,1.0568,1.0606,1.0665,1.0682,1.0718,1.0731,1.0766,1.0784,1.081,1.0889,1.0936,1.0879,1.096,1.0911,1.0909,1.0892,1.0891,1.0703,1.0902,1.0902,1.0902,1.0903,0,1.0287,1.0264,1.0389,1.038,1.0359,1.0455,1.0431,1.048,1.0533,1.0537,1.0631,1.0632,1.0738,1.0752,1.0814,1.0804,1.0812,1.0843,1.086,1.0834,1.083,1.0842,1.0851,1.0898,1.0899,1.09,1.0901,0,1.0097,1.0179,1.0173,1.0264,1.0286,1.0266,1.0344,1.0341,1.0401,1.0405,1.0411,1.0504,1.0526,1.0609,1.065,1.0692,1.0662,1.0695,1.0643,1.0654,1.06,1.0604,1.0412,1.0393,1.0603,1.0601,1.06,0,0.9997,0.9983,1.0073,1.0083,1.0118,1.0133,1.0153,1.0248,1.0264,1.0329,1.0318,1.0348,1.0377,1.0407,1.0478,1.0511,1.0545,1.0476,1.055,1.0526,1.0544,1.0543,1.0543,1.0459,1.0456,1.0454,1.0452,0,0.9811,0.9854,0.9879,0.9918,0.9939,0.9975,1.0016,1.0019,1.0126,1.0139,1.0164,1.0187,1.0231,1.026,1.0306,1.0346,1.0416,1.0429,1.0419,1.0392,1.0362,1.0378,1.0598,1.0432,1.0434,1.0435,1.0436,1.0437,0.9663,0.9657,0.972,0.9745,0.9787,0.9824,0.9827,0.9888,0.9911,0.9955,1.0011,1.0029,1.0089,1.0158,1.0193,1.0209,1.0248,1.0234,1.023,1.0225,1.0212,1.0362,1.0218,1.0219,1.0219,1.022,1.022,0,0.9482,0.9529,0.9552,0.9608,0.9628,0.9697,0.9747,0.9759,0.9774,0.9824,0.9852,0.9882,0.9912,0.9987,1.0025,1.0023,1.0057,1.003,1.003,1.0038,1.0175,1.018,1.0002,1.0002,1.0002,1.0002,1.0002,1.0002,0.939,0.9383,0.9433,0.9449,0.9497,0.9516,0.9539,0.9575,0.9616,0.9645,0.9671,0.9721,0.9783,0.9826,0.9857,0.9879,0.9888,0.985,0.9881,1.0007,1.0028,1.0048,1.0053,0.9851,0.9851,0.9743,0.9742,0.9742]}]]